Regional Weather Roundup
Issued by NWS

Home | Current Version | Previous Version | Text Only | Print | Product List | Glossary Off
Versions: 1 2 3 4 5 6 7 8 9 10 11 12 13 14 15 16 17 18 19 20 21 22 23 24

000
ASUS45 KTFX 200110
RWRMT
MONTANA REGIONAL WEATHER ROUNDUP
NATIONAL WEATHER SERVICE GREAT FALLS MT
700 PM MDT TUE SEP 19 2017

NOTE: "FAIR" INDICATES FEW OR NO CLOUDS BELOW 12000 FEET WITH NO
SIGNIFICANT WEATHER AND/OR OBSTRUCTIONS TO VISIBILITY.

MTZ001>007-043-200200-
WEST OF THE DIVIDE

CITY           SKY/WX    TMP DP  RH WIND       PRES   REMARKS
KALISPELL      CLOUDY    47  40  76 SW8       29.68S
MISSOULA       CLOUDY    46  36  68 S7        29.76S
BUTTE          LGT SNOW  34  34 100 E5        29.79R FOG
MULLAN PASS    SNOW      31  29  92 CALM      29.71S VSB 1/4
ANACONDA         N/A     41  30  65 SE6       29.77R
DEER LODGE       N/A     43  32  65 S10       29.76R
EUREKA           N/A     48  39  71 CALM      29.66R
HAMILTON         N/A     43  36  75 SE12G18   29.79R
LIBBY            N/A     48  43  81 CALM      29.67S
$$

MTZ008-052>055-200200-
SOUTHWEST MONTANA

CITY           SKY/WX    TMP DP  RH WIND       PRES   REMARKS
BOZEMAN        CLOUDY    44  37  76 SE9       29.75R
DILLON         CLOUDY    41  33  73 NE10      29.78R
W YELLOWSTONE  CLOUDY    36  32  87 S8        29.84R WCI  29
ENNIS          CLOUDY    43  30  61 S9        29.80F
THREE FORKS      N/A     49  34  56 SW12      29.77R
$$

MTZ009-010-012-014-046-048-049-054-200200-
EAST SLOPES AND CENTRAL MONTANA

CITY           SKY/WX    TMP DP  RH WIND       PRES   REMARKS
CUT BANK       CLOUDY    44  33  65 SW16      29.61R
GREAT FALLS    CLOUDY    47  32  56 SW18G24   29.65R
MALMSTROM AFB  CLOUDY    49  33  52 SW21      29.65R
HELENA         CLOUDY    49  33  54 NW8       29.70R
BOWMANS CRNR     N/A     44  31  58 SW17      29.65R
CHOTEAU          N/A     48  28  46 W6        29.65R
FAIRFIELD        N/A     50  26  38 SW15      29.63R
POWER            N/A     49  30  48 SW13      29.63R
RAYNESFORD       N/A     48  31  51 SW9       29.67R
$$

MTZ011-013-016-021-045-047-050-051-200200-
NORTH CENTRAL MONTANA

CITY           SKY/WX    TMP DP  RH WIND       PRES   REMARKS
HAVRE          CLEAR     56  30  37 W12       29.57R
LEWISTOWN      CLOUDY    52  29  41 W9        29.65R
N BAR RANCH    MOCLDY    48  30  49 SW6       29.69R
CHINOOK          N/A     57  34  41 S3        29.56S
DENTON           N/A     51  28  41 W9        29.60S
GEYSER         MOCLDY    49  32  52 W14G22    29.64S
GRASS RANGE    MOCLDY    52  31  43 W7        29.62R
JUDITH GAP     MOCLDY    47  32  55 SW18      29.68R
WINIFRED         N/A     52  29  41 W12       29.62S
$$

MTZ017>020-022>027-061-062-200200-
NORTHEAST MONTANA

CITY           SKY/WX    TMP DP  RH WIND       PRES   REMARKS
GLASGOW        MOCLDY    56  33  42 W10       29.57R
JORDAN           N/A     56  33  42 W7        29.61R
SIDNEY         LGT RAIN  56  36  47 W9        29.59R
WOLF POINT     CLOUDY    55  41  59 SW6       29.58R
MALTA          CLEAR     55  30  38 W7        29.58S
PLENTYWOOD       N/A     54  43  66 W12       29.53R
POPLAR           N/A     55  39  54 W6        29.57S
$$

MTZ028>42-056>058-200200-
SOUTHCENTRAL AND SOUTHEAST MONTANA

CITY           SKY/WX    TMP DP  RH WIND       PRES   REMARKS
BAKER          CLOUDY    49  40  71 W10       29.67S
BILLINGS       CLOUDY    54  32  43 W6        29.69R
LIVINGSTON     CLOUDY    44  34  67 W13       29.75R
MILES CITY     MOCLDY    52  38  58 SW9       29.67R
BIG TIMBER     CLEAR     45  36  70 W8        29.75S
HARLOWTON      MOCLDY    46  33  61 MISG      29.70R
LAUREL           N/A     50  34  53 VRB3G26   29.71R
$$

REGIONAL REPORTS...DAKOTAS

CITY           SKY/WX    TMP DP  RH WIND       PRES   REMARKS
WILLISTON      LGT RAIN  57  41  55 W14       29.56R
MINOT          LGT RAIN  60  54  80 SW13G22   29.48S
DICKINSON      LGT RAIN  50  48  93 W14       29.60S
BEACH          CLOUDY    48  45  87 W9        29.67S
CROSBY         CLOUDY    55  48  76 W13       29.52R
TIOGA          MOCLDY    55  45  67 W15G23    29.55R
WATFORD CITY   DRIZZLE   52  43  71 W13       29.58R
BISMARCK       MOCLDY    61  45  55 W22G32    29.54R
GRAND FORKS    TSTM      68  66  93 E22       29.47R
FARGO          LGT RAIN  65  63  93 S7        29.46R
BUFFALO SD       N/A     50  46  86 W10       29.62S
RAPID CITY     CLOUDY    50  46  87 N22       29.69R
$$

REGIONAL REPORTS...WYOMING/IDAHO/WASHINGTON

CITY           SKY/WX    TMP DP  RH WIND       PRES   REMARKS
GILLETTE       CLEAR     43  40  89 W8        29.76R
SHERIDAN       CLEAR     46  37  71 SW9       29.73S
BUFFALO WY     CLOUDY    44  37  76 SW6       29.78R
CODY           LGT RAIN  42  34  73 W12G22    29.83R
YELLOWSTONE LA   N/A     29  27  92 CALM      29.87R
IDAHO FALLS    PTCLDY    50  30  46 SW21G30   29.85F
SALMON         CLOUDY    47  36  65 NW7       29.79R
BOISE          MOCLDY    56  37  49 NE7       29.87S
SPOKANE        CLOUDY    47  43  86 SE6       29.72S
$$

REGIONAL REPORTS...ALBERTA

CITY           SKY/WX    TMP DP  RH WIND       PRES   REMARKS
EDMONTON       CLOUDY    41  37  87 W10       29.42S
CALGARY        PTCLDY    54  16  22 W13G20    29.48S
LETHBRIDGE     MOCLDY    54  27  35 SW20      29.52F
MEDICINE HAT   MOCLDY    55  28  35 SE3       29.51F
$$

REGIONAL REPORTS...SASKATCHEWAN

CITY           SKY/WX    TMP DP  RH WIND       PRES   REMARKS
SWIFT CURRENT  CLEAR     50  32  50 W12       29.50F
REGINA         MOCLDY    50  45  81 W8        29.46F
SASKATOON      MOCLDY    48  45  87 W15       29.44S
$$




USA.gov is the U.S. government's official web portal to all federal, state and local government web resources and services.